Regional Weather Roundup
Issued by NWS Lake Charles, LA

Home | Current Version | Previous Version | Text Only | Print | Product List | Glossary On
Versions: 1 2 3 4 5 6 7 8 9 10 11 12 13 14 15 16 17 18 19 20 21 22 23 24 25 26 27 28 29 30 31 32 33 34 35 36 37 38 39 40 41 42 43 44 45 46 47 48 49 50
000
ASUS44 KLCH 011110
RWRLCH
RWRLCH
REGIONAL WEATHER ROUNDUP
NATIONAL WEATHER SERVICE LAKE CHARLES LA
500 AM CST SUN FEB 01 2015

Note: "fair" indicates few or no clouds below 12,000 feet with no
significant weather and/or obstructions to visibility.


ACROSS SOUTHEAST TEXAS

CITY           SKY/WX    TMP DP  RH WIND       PRES   REMARKS
BEAUMONT       CLOUDY    61  60  97 CALM      29.94F FOG
BEAUMONT CITY  CLOUDY    60  60  99 SE6       29.94F FOG
ORANGE         CLOUDY    60  59  98 SE7       29.96F FOG
JASPER         CLOUDY    57  55  92 SE3       29.97S
$$

ACROSS CENTRAL LOUISIANA

CITY           SKY/WX    TMP DP  RH WIND       PRES   REMARKS
LEESVILLE      CLOUDY    55  54  94 VRB1      29.95F
FULLERTON      CLOUDY    58  53  84 CALM      29.93F
ALEXANDRIA INT CLOUDY    55  52  89 CALM      29.97R
ESLER FIELD    CLOUDY    56  52  86 CALM      29.97R
DERIDDER       CLOUDY    57  55  92 CALM      29.98F
OAKDALE        CLOUDY    56  53  90 CALM      29.96S
OPELOUSAS        N/A     57  54  88 SE12      29.96F
$$

ACROSS SOUTHWEST AND SOUTH CENTRAL LOUISIANA

CITY           SKY/WX    TMP DP  RH WIND       PRES   REMARKS
SULPHUR        CLOUDY    57  57  98 CALM      29.96S
LAKE CHARLES   MOCLDY    55  54  96 CALM      29.95F FOG
CHENNAULT INT  NOT AVBL
CAMERON PHI      N/A     59  57  94 SE9       29.97F FOG
DEQUINCY       CLOUDY    58  58  99 CALM      29.96S
JENNINGS       CLOUDY    60  58  93 SE9G16    29.95F
LAFAYETTE      MOCLDY    59  56  89 CALM      29.97S
NEW IBERIA     MOCLDY    61  58  90 SE12      29.98R
ABBEVILLE      PTSUNNY   59  58  96 SE10G16   29.96F
PATTERSON      CLOUDY    61  57  88 SE10      29.98F
SALT POINT       N/A     61  60  97 SE9       29.96F
$$

SELECTED SITES ACROSS THE REGION

CITY           SKY/WX    TMP DP  RH WIND       PRES   REMARKS
HOUSTON BUSH   MOCLDY    63  62  97 S6        29.92F FOG
HOUSTON HOBBY  PTCLDY    61  61 100 S3        29.92F
GALVESTON      CLOUDY    61  61 100 S6        29.94F
COLLEGE STAT   CLOUDY    60  60 100 S10       29.89F FOG
CONROE         CLOUDY    61  59  93 SE3       29.92F FOG
HUNTSVILLE     CLOUDY    61  61 100 S8        29.90F FOG
LUFKIN         CLOUDY    62  57  83 S6        29.91F
SHREVEPORT     CLOUDY    56  53  90 S13       29.90S
MONROE         CLOUDY    53  50  89 S9        29.97R
NATCHEZ MS     CLOUDY    55  48  76 S10       29.98F
BATON ROUGE    LGT RAIN  58  53  84 SE16      29.97F
N.O. INTL ARPT CLOUDY    62  54  74 SE5       30.02S
SLIDELL        CLOUDY    61  54  77 SE6       30.03S
$$

MARINE REPORTS

STATION/POSITION TIME  TEMP    WIND        PRES    VSBY  WAVE
                       AIR SEA DIR/SP/G                  HT/PER
                 (UTC) (F)     (DEG/KT/KT) (MB)    (MI)  (FT/S)
BUOY 30 S HIGH I 1100   60 58  150/  6/  6 1013.3R         3/ 5
SEA RIM ST PARK  1100   59     150/  3/  4 1014.4R
PORT ARTHUR      1100      55   CALM  /  3 1014.0F
SABINE PASS N    1100   59 56  120/  3/  4 1013.8R
TEXAS POINT      NOT AVBL
CALCASIEU PASS   1100   58 56  140/  7/  9   N/A
LK CHARLES BEACH 1100   58 53              1014.3F
MARSH ISLAND     1000   61     150/ 19/ 21   N/A
FRESH WATER LOCK 1100   60 57  120/  8/ 11 1014.3F
AMERADA PASS     1100   60 50  130/  4/  8 1015.3F
$$


USA.gov is the U.S. government's official web portal to all federal, state and local government web resources and services.